• MPC Preparation (Info)

  • MPEC 2014-A32 : 2014 AE16

    The following Minor Planet Electronic Circular may be linked-to from your own Web pages, but must not otherwise be redistributed electronically.

    A form allowing access to any MPEC is at the bottom of this page.


    Read MPEC 2014-A31 Read MPEC 2014-A33


    M.P.E.C. 2014-A32                                Issued 2014 Jan. 5, 19:13 UT
    
         The Minor Planet Electronic Circulars contain information on unusual
             minor planets and routine data on comets.  They are published
       on behalf of Commission 20 of the International Astronomical Union by the
              Minor Planet Center, Smithsonian Astrophysical Observatory,
                              Cambridge, MA 02138, U.S.A.
    
                 Prepared using the Tamkin Foundation Computer Network
    
                                  MPC@CFA.HARVARD.EDU
                URL https://www.minorplanetcenter.net/    ISSN 1523-6714
    
                                       2014 AE16
    
    Observations:
         K14A16E* C2014 01 03.31357 07 26 40.46 +20 26 41.4          20.2 VqEA032G96
         K14A16E  C2014 01 03.31983 07 26 40.97 +20 26 33.8          20.2 VqEA032G96
         K14A16E  C2014 01 03.32608 07 26 41.49 +20 26 26.3          20.2 VqEA032G96
         K14A16E  C2014 01 03.33233 07 26 42.00 +20 26 18.7          20.3 VqEA032G96
         K14A16E KC2014 01 03.38603907 26 45.36 +20 25 01.2          20.4 VqEA032H21
         K14A16E KC2014 01 03.39396107 26 45.99 +20 24 50.8          20.2 VqEA032H21
         K14A16E KC2014 01 03.39845307 26 46.35 +20 24 45.0          20.6 VqEA032H21
         K14A16E KC2014 01 03.40386207 26 46.85 +20 24 38.2          20.6 VqEA032H21
         K14A16E  C2014 01 03.41466 07 26 48.81 +20 24 36.6          20.1 VqEA032G96
         K14A16E  C2014 01 03.42126 07 26 49.36 +20 24 28.5          20.3 VqEA032G96
         K14A16E  C2014 01 03.42786 07 26 49.93 +20 24 20.2          20.4 VqEA032G96
         K14A16E  C2014 01 03.43447 07 26 50.48 +20 24 11.9          20.3 VqEA032G96
         K14A16E  C2014 01 04.18534 07 28 15.74 +20 09 11.4          20.1 VqEA032G96
         K14A16E  C2014 01 04.18971 07 28 16.14 +20 09 07.4          20.7 VqEA032G96
         K14A16E  C2014 01 04.19410 07 28 16.51 +20 09 02.4          20.4 VqEA032G96
         K14A16E  C2014 01 04.19847 07 28 16.91 +20 08 57.2          20.5 VqEA032G96
         K14A16E KC2014 01 04.20319 07 28 17.37 +20 08 52.8          19.8 RoEA032291
         K14A16E KC2014 01 04.20752 07 28 17.74 +20 08 47.9          19.9 RoEA032291
         K14A16E KC2014 01 04.21186 07 28 18.12 +20 08 43.2          20.0 RoEA032291
         K14A16E  C2014 01 04.30081 07 28 24.85 +20 07 04.9                oEA032711
         K14A16E  C2014 01 04.30466 07 28 25.15 +20 07 00.5                oEA032711
         K14A16E  C2014 01 04.30828 07 28 25.41 +20 06 56.2                oEA032711
         K14A16E |C2014 01 05.22506 07 29 59.11 +19 50 08.5          20.5 VuEA032807
         K14A16E |C2014 01 05.22971 07 29 59.46 +19 50 03.0          20.4 VuEA032807
         K14A16E |C2014 01 05.23457 07 29 59.82 +19 49 57.4          20.6 VuEA032807
    
    Observer details:
    291 LPL/Spacewatch II.  Observer R. A. Mastaler.  1.8-m f/2.7 reflector + CCD.
    711 McDonald Observatory.  Observer J. G. Ries.  2.1-m reflector + CCD + focal
        reducer.
    807 Cerro Tololo.  Observers T. Linder, R. Holmes.  0.41-m f/11
        Ritchey-Chretien + CCD.
    G96 Mt. Lemmon Survey.  Observers E. J. Christensen, R. A. Kowalski.
        Measurers A. Boattini, E. J. Christensen, A. R. Gibbs, A. D. Grauer,
        R. E. Hill, J. A. Johnson, R. A. Kowalski, S. M. Larson, F. C. Shelly.
        1.5-m reflector + CCD.
    H21 Astronomical Research Observatory, Westfield.  Observer R. Holmes.
        Measurers T. Vorobjov, L. Buzzi, S. Foglia, T. Linder.  0.61-m f/4.0
        astrograph + CCD.
    
    Orbital elements:
    2014 AE16                                                Earth MOID = 0.1157 AU
    Epoch 2013 Nov. 4.0 TT = JDT 2456600.5                  MPC
    M 339.20922              (2000.0)            P               Q
    n   0.47714860     Peri.  168.75436     +0.04912333     -0.99823308
    a   1.6219356      Node   278.42363     +0.91373286     +0.05843105
    e   0.3220218      Incl.    1.93669     +0.40333504     -0.01079458
    P   2.07           H   24.1           G   0.15           U   8
    Residuals in seconds of arc
    140103 G96  0.2-  0.2+    140103 G96  0.2-  0.0     140104 291  0.1+  0.0
    140103 G96  0.2-  0.1+    140103 G96  0.2-  0.1+    140104 711  0.0   0.1-
    140103 G96  0.1-  0.1+    140103 G96  0.5-  0.2+    140104 711  0.0   0.1+
    140103 G96  0.1-  0.0     140104 G96  0.1-  0.4-    140104 711  0.3-  0.0
    140103 H21  1.6+  0.1+    140104 G96  0.1+  0.4+    140105 807  0.0   0.0
    140103 H21  0.4+  0.2-    140104 G96  0.1-  0.1+    140105 807  0.0   0.1-
    140103 H21  0.3-  0.2-    140104 G96  0.1+  0.3-    140105 807  0.0   0.0
    140103 H21  0.2-  0.0     140104 291  0.1+  0.1+
    140103 G96  0.1-  0.3-    140104 291  0.0   0.0
    
    Ephemeris:
    2014 AE16                a,e,i = 1.62, 0.32, 2                   q = 1.0996
    Date    TT    R. A. (2000) Decl.     Delta      r     Elong.  Phase     V
    2013 12 06    06 09 14.8 +29 58 59   0.1258  1.1049   160.7    17.1    20.7
    ...
    2013 12 21    06 56 32.6 +25 16 16   0.1194  1.1001   166.1    12.4    20.4
    ...
    2013 12 29    07 16 11.0 +22 18 40   0.1231  1.1047   169.7     9.2    20.4
    ...
    2014 01 04    07 27 53.0 +20 13 15   0.1290  1.1114   172.6     6.5    20.4
    2014 01 05    07 29 36.4 +19 53 39   0.1303  1.1128   173.1     6.1    20.4
    2014 01 06    07 31 16.4 +19 34 30   0.1316  1.1142   173.6     5.7    20.4
    ...
    2014 01 12    07 40 10.9 +17 50 00   0.1413  1.1244   175.8     3.7    20.5
    ...
    2014 01 20    07 49 46.0 +16 00 42   0.1586  1.1418   174.1     5.1    20.8
    ...
    2014 02 04    08 04 15.6 +13 59 18   0.2055  1.1848   164.1    13.2    21.8
    
    A. U. Tomatic                (C) Copyright 2014 MPC           M.P.E.C. 2014-A32
    

    Read MPEC 2014-A31 Read MPEC 2014-A33


    MPEC number:

    Enter an MPEC number in one of the following forms:

    • 1997-B01 (the full form)
    • J97B01 (the packed version of the full form)
    • B01 (the abbreviated form)